[[{"header":{"parameterUnit":"m.s-1","parameterCategory":1,"la1":30.2991,"la2":30.254,"lo1":-89.0895,"lo2":-89.0444,"dy":0.0017,"dx":0.0017,"nx":28,"ny":28,"refTime":"2023-08-02T03:00:00:Z","depth":0,"parameterNumber":2,"parameterNumberName":"U-component_of_WINDS"},"data":[0,0,0,0,0,0,0,0,0,0,0,0,0,0,0,0,0,0,0,0,0,0,0,0,0,0,0,0,0,0,0,0,0,0,0,0,0,0,0,0,0,0,0,0,0,0,0,0,0,0,0,0,0,0,0,0,0,0,-2.6462,-2.6462,0,-2.6414,-2.6413,-2.6413,-2.6332,-2.6331,-2.633,-2.6328,-2.628,-2.628,-2.628,0,0,0,0,0,0,0,0,0,0,0,0,0,-2.6486,-2.6486,-2.6462,-2.6461,-2.6461,-2.6414,-2.6413,-2.6413,-2.6333,-2.6331,-2.6329,-2.6327,-2.628,-2.628,-2.628,0,0,0,0,0,0,0,0,0,0,0,0,0,-2.6461,-2.6486,-2.6462,-2.6415,-2.6411,-2.6414,-2.6413,-2.6412,-2.6333,-2.6331,-2.6329,-2.6327,-2.628,-2.628,-2.628,-2.6326,0,0,-2.628,-2.6281,0,0,0,0,0,0,0,0,-2.6462,-2.646,-2.6423,-2.6419,-2.6413,-2.6377,-2.6404,-2.6383,-2.6334,-2.6363,-2.6328,-2.6325,-2.6314,-2.6311,-2.6307,-2.6323,-2.6321,-2.628,-2.6281,-2.6281,-2.6281,0,0,0,0,0,0,0,-2.6464,-2.6462,-2.6443,-2.6422,-2.6417,-2.6397,-2.6391,-2.64,-2.6351,-2.636,-2.6354,-2.6349,-2.6311,-2.6307,-2.6305,-2.632,-2.628,-2.6281,-2.6281,-2.6281,-2.6373,-2.6375,0,0,0,0,0,0,-2.6473,-2.6464,-2.6444,-2.6442,-2.6433,-2.6399,-2.6392,-2.6391,-2.6351,-2.6343,-2.6351,-2.6346,-2.6308,-2.6305,-2.6303,-2.6355,-2.6281,-2.6281,-2.6281,-2.637,-2.6373,-2.6376,0,0,0,0,0,0,-2.6474,-2.6472,-2.6446,-2.6451,-2.6446,-2.6401,-2.64,-2.6391,-2.6387,-2.6345,-2.6336,-2.6356,-2.6306,-2.6303,-2.6321,-2.6352,-2.6281,-2.6281,-2.6368,-2.6371,-2.6374,-2.6457,0,0,0,0,0,0,-2.6475,-2.6473,-2.6489,-2.6452,-2.6446,-2.6465,-2.6402,-2.6392,-2.6387,-2.638,-2.6347,-2.6339,-2.6304,-2.6321,-2.6321,-2.6351,-2.6281,-2.6365,-2.6369,-2.6373,-2.6452,-2.6463,-2.6473,0,0,0,0,0,-2.6476,-2.6514,-2.649,-2.6488,-2.6466,-2.6466,-2.6463,-2.6422,-2.639,-2.6407,-2.638,-2.634,-2.6348,-2.6323,-2.6323,-2.6353,-2.6362,-2.6368,-2.6373,-2.6447,-2.6461,-2.6473,0,0,0,0,0,0,-2.6557,-2.6509,-2.6481,-2.6509,-2.6493,-2.6453,-2.6472,-2.6438,-2.643,-2.6424,-2.6373,-2.6366,-2.6391,-2.6373,-2.6346,-2.6395,-2.6349,-2.6355,-2.6406,-2.6419,-2.643,-2.6433,-2.6281,0,0,0,0,0,-2.6578,-2.6582,-2.654,-2.6568,-2.6561,-2.6519,-2.6517,-2.6487,-2.6468,-2.646,-2.6434,-2.6418,-2.6416,-2.6417,-2.6413,-2.6449,-2.6441,-2.6469,-2.648,-2.6489,-2.6495,-2.6513,-2.6526,-2.6393,-2.6393,-2.6393,0,0,-2.6621,-2.6595,-2.6601,-2.6584,-2.6567,-2.6573,-2.6513,-2.6522,-2.6526,-2.6462,-2.6477,-2.6457,-2.6435,-2.6463,-2.6473,-2.6449,-2.653,-2.6496,-2.6504,-2.6504,-2.652,-2.6533,-2.6544,-2.6397,-2.6396,-2.6395,0,0,-2.6703,-2.6684,-2.6706,-2.6691,-2.6667,-2.6638,-2.6644,-2.6609,-2.6594,-2.6608,-2.6561,-2.6565,-2.6564,-2.655,-2.6543,-2.6622,-2.6585,-2.6622,-2.6678,-2.6697,-2.6708,-2.6717,-2.6745,-2.6756,-2.6627,-2.6628,-2.6628,0,-2.6761,-2.6767,-2.6722,-2.6734,-2.6728,-2.667,-2.6692,-2.668,-2.6656,-2.6654,-2.6627,-2.6625,-2.6606,-2.6629,-2.6649,-2.6645,-2.665,-2.6626,-2.671,-2.6718,-2.6726,-2.6753,-2.6764,-2.6632,-2.6632,-2.6631,-2.6631,0,-2.6839,-2.6845,-2.6865,-2.6844,-2.684,-2.6857,-2.6815,-2.6817,-2.6787,-2.6762,-2.6778,-2.6753,-2.6744,-2.6747,-2.6718,-2.6767,-2.6753,-2.6719,-2.6671,-2.6744,-2.6769,-2.6778,-2.6639,-2.6637,-2.6636,-2.6635,0,0,-2.6971,-2.6924,-2.6933,-2.6923,-2.6892,-2.6895,-2.691,-2.6901,-2.6904,-2.689,-2.6902,-2.6903,-2.6871,-2.6863,-2.6832,-2.6848,-2.6913,-2.6812,-2.6811,-2.6832,-2.6967,-2.6993,-2.7006,-2.6889,-2.6891,-2.6892,-2.6969,0,-2.7047,-2.7069,-2.7029,-2.7061,-2.7066,-2.7012,-2.7025,-2.7008,-2.6985,-2.6986,-2.696,-2.6962,-2.692,-2.6915,-2.6929,-2.6902,-2.694,-2.6896,-2.69,-2.6901,-2.6908,-2.7018,-2.7046,-2.712,-2.6978,-2.6979,-2.6981,0,-2.7139,-2.7129,-2.7162,-2.713,-2.7131,-2.7143,-2.7132,-2.7134,-2.7114,-2.7096,-2.7088,-2.7051,-2.7064,-2.7019,-2.7036,-2.7008,-2.7007,-2.6995,-2.6996,-2.6996,-2.6945,-2.7021,-2.7142,-2.7154,-2.6995,-2.6994,-2.6993,0,-2.7233,-2.7228,-2.7247,-2.724,-2.7203,-2.7213,-2.7199,-2.7176,-2.7174,-2.7164,-2.7162,-2.7155,-2.7151,-2.7146,-2.7108,-2.7078,-2.7131,-2.7082,-2.7117,-2.7118,-2.7131,-2.7131,-2.7254,-2.713,-2.713,-2.713,-2.7129,0,-2.7322,-2.7345,-2.7289,-2.73,-2.7324,-2.7278,-2.7303,-2.7283,-2.7264,-2.7271,-2.7224,-2.7232,-2.7182,-2.7185,-2.7156,-2.7175,-2.7174,-2.716,-2.7152,-2.7165,-2.7167,-2.7164,-2.7158,-2.7132,-2.7132,-2.7131,-2.7131,0,-2.7431,-2.7394,-2.7411,-2.7375,-2.7367,-2.7386,-2.7355,-2.7365,-2.7339,-2.7349,-2.7349,-2.7309,-2.731,-2.7272,-2.7265,-2.7246,-2.7279,-2.7261,-2.7286,-2.728,-2.7318,-2.7315,-2.7444,-2.7459,-2.7325,-2.7326,-2.7328,0,-2.7491,-2.7507,-2.7472,-2.7474,-2.7462,-2.7465,-2.7462,-2.7418,-2.7417,-2.7396,-2.7409,-2.7406,-2.7401,-2.7406,-2.7376,-2.7371,-2.7353,-2.7399,-2.7352,-2.7365,-2.7355,-2.7355,-2.7357,-2.7409,-2.7411,-2.7412,-2.7413,0,-2.7601,-2.7582,-2.758,-2.7572,-2.757,-2.7561,-2.7549,-2.7554,-2.7505,-2.7507,-2.7507,-2.7504,-2.7498,-2.7496,-2.7485,-2.747,-2.7435,-2.7428,-2.7436,-2.7449,-2.7463,-2.7457,-2.7313,-2.7425,-2.7424,-2.7423,-2.7423,-2.7422,-2.7687,-2.7699,-2.7677,-2.7677,-2.7663,-2.7654,-2.7662,-2.7637,-2.7636,-2.7627,-2.7601,-2.7607,-2.7587,-2.7569,-2.7558,-2.7562,-2.7539,-2.7551,-2.7554,-2.7558,-2.7565,-2.7462,-2.756,-2.7559,-2.7559,-2.7559,-2.7558,0,-2.7796,-2.7779,-2.7779,-2.7764,-2.7764,-2.773,-2.7715,-2.7718,-2.7723,-2.7707,-2.7704,-2.7705,-2.7704,-2.7674,-2.7669,-2.7678,-2.7661,-2.7678,-2.7677,-2.7675,-2.7585,-2.7579,-2.7692,-2.7692,-2.7692,-2.7692,-2.7692,-2.7691,-2.7852,-2.7871,-2.785,-2.7862,-2.7845,-2.785,-2.7845,-2.7836,-2.7823,-2.7827,-2.7825,-2.7806,-2.7785,-2.7778,-2.7776,-2.7767,-2.7768,-2.779,-2.7777,-2.7694,-2.7681,-2.7668,-2.7663,-2.7791,-2.7791,-2.7866,-2.7866,-2.7867]},{"header":{"parameterUnit":"m.s-1","parameterCategory":1,"la1":30.2991,"la2":30.254,"lo1":-89.0895,"lo2":-89.0444,"dy":0.0017,"dx":0.0017,"nx":28,"ny":28,"refTime":"2023-08-02T03:00:00:Z","depth":0,"parameterNumber":3,"parameterNumberName":"V-component_of_WINDS"},"data":[0,0,0,0,0,0,0,0,0,0,0,0,0,0,0,0,0,0,0,0,0,0,0,0,0,0,0,0,0,0,0,0,0,0,0,0,0,0,0,0,0,0,0,0,0,0,0,0,0,0,0,0,0,0,0,0,0,0,-1.1965,-1.1965,0,-1.2002,-1.2002,-1.2002,-1.199,-1.1989,-1.1988,-1.1987,-1.2025,-1.2027,-1.2028,0,0,0,0,0,0,0,0,0,0,0,0,0,-1.1881,-1.1883,-1.1965,-1.1965,-1.1965,-1.2002,-1.2002,-1.2003,-1.199,-1.1989,-1.1988,-1.1987,-1.2024,-1.2026,-1.2029,0,0,0,0,0,0,0,0,0,0,0,0,0,-1.1918,-1.1884,-1.1964,-1.1964,-1.1964,-1.2001,-1.2002,-1.2003,-1.199,-1.1989,-1.1988,-1.1987,-1.2024,-1.2026,-1.2029,-1.2069,0,0,-1.2037,-1.2038,0,0,0,0,0,0,0,0,-1.1916,-1.1921,-1.1963,-1.1964,-1.1964,-1.199,-1.1986,-1.2025,-1.199,-1.198,-1.1987,-1.1986,-1.2014,-1.2018,-1.2027,-1.2071,-1.2073,-1.2037,-1.2039,-1.204,-1.2041,0,0,0,0,0,0,0,-1.1913,-1.1919,-1.1979,-1.1964,-1.1964,-1.1961,-1.1965,-1.1994,-1.2004,-1.1981,-1.198,-1.1985,-1.2014,-1.2025,-1.2028,-1.2073,-1.2037,-1.2039,-1.2041,-1.2042,-1.2152,-1.2153,0,0,0,0,0,0,-1.1911,-1.1917,-1.1978,-1.198,-1.1936,-1.1963,-1.1968,-1.1983,-1.2003,-1.2005,-1.1986,-1.1984,-1.2021,-1.2025,-1.2029,-1.2078,-1.204,-1.2042,-1.2044,-1.2151,-1.2152,-1.2154,0,0,0,0,0,0,-1.1909,-1.1916,-1.1977,-1.1949,-1.1956,-1.1966,-1.1983,-1.1984,-1.1995,-1.2007,-1.2008,-1.1995,-1.202,-1.2026,-1.2059,-1.2079,-1.2043,-1.2046,-1.2149,-1.2151,-1.2153,-1.2177,0,0,0,0,0,0,-1.1907,-1.1916,-1.1932,-1.1949,-1.1958,-1.2007,-1.1984,-1.1986,-1.1999,-1.1997,-1.2016,-1.2018,-1.2019,-1.2056,-1.2062,-1.2082,-1.2048,-1.2147,-1.215,-1.2152,-1.2174,-1.2179,-1.2184,0,0,0,0,0,-1.1904,-1.1937,-1.1933,-1.194,-1.1978,-1.2008,-1.2013,-1.2014,-1.2001,-1.2017,-1.2024,-1.2017,-1.2076,-1.2059,-1.2066,-1.2088,-1.2146,-1.2149,-1.2152,-1.2172,-1.2178,-1.2184,0,0,0,0,0,0,-1.1922,-1.1939,-1.1935,-1.1975,-1.199,-1.2006,-1.2026,-1.2021,-1.204,-1.2038,-1.2039,-1.2043,-1.2078,-1.2086,-1.2067,-1.2128,-1.2109,-1.2114,-1.2122,-1.2128,-1.2132,-1.213,-1.205,0,0,0,0,0,-1.193,-1.1954,-1.1967,-1.2001,-1.2009,-1.2016,-1.2029,-1.2029,-1.2045,-1.2051,-1.2062,-1.2077,-1.2099,-1.2113,-1.2134,-1.2175,-1.2179,-1.2193,-1.2198,-1.2201,-1.2206,-1.2228,-1.2234,-1.2164,-1.2164,-1.2164,0,0,-1.1949,-1.1961,-1.1976,-1.2005,-1.2017,-1.2041,-1.2022,-1.2048,-1.2066,-1.2055,-1.2088,-1.2096,-1.2113,-1.2151,-1.2168,-1.2159,-1.2226,-1.2205,-1.2208,-1.2211,-1.2231,-1.2238,-1.2244,-1.2166,-1.2165,-1.2165,0,0,-1.1994,-1.2006,-1.2035,-1.2047,-1.2065,-1.207,-1.2077,-1.2093,-1.2098,-1.2131,-1.2123,-1.2144,-1.2182,-1.2194,-1.2206,-1.2254,-1.2248,-1.2261,-1.2286,-1.2307,-1.2313,-1.2318,-1.2336,-1.2342,-1.2265,-1.2265,-1.2265,0,-1.2015,-1.2051,-1.2051,-1.2078,-1.2091,-1.2082,-1.2112,-1.2123,-1.2147,-1.2156,-1.2145,-1.2192,-1.2203,-1.2243,-1.2255,-1.2264,-1.2272,-1.226,-1.2312,-1.2317,-1.2322,-1.2339,-1.2345,-1.2266,-1.2266,-1.2266,-1.2266,0,-1.2075,-1.21,-1.2122,-1.2145,-1.216,-1.2188,-1.2192,-1.2208,-1.2205,-1.2211,-1.2244,-1.2256,-1.2279,-1.2288,-1.2287,-1.2328,-1.2322,-1.2312,-1.2293,-1.233,-1.2346,-1.2352,-1.2268,-1.2268,-1.2267,-1.2267,0,0,-1.2136,-1.2158,-1.2166,-1.2176,-1.2194,-1.2214,-1.224,-1.2263,-1.2276,-1.2292,-1.2315,-1.2346,-1.2337,-1.2349,-1.2349,-1.2367,-1.2405,-1.2354,-1.2355,-1.2364,-1.2452,-1.2461,-1.2468,-1.24,-1.2402,-1.2403,-1.2451,0,-1.2184,-1.2232,-1.2232,-1.2276,-1.2299,-1.229,-1.2314,-1.2327,-1.2332,-1.2352,-1.2357,-1.238,-1.2365,-1.2372,-1.239,-1.2397,-1.2423,-1.2393,-1.2422,-1.2423,-1.242,-1.2477,-1.2486,-1.2531,-1.2457,-1.2458,-1.2459,0,-1.2247,-1.2265,-1.2312,-1.2326,-1.2336,-1.2357,-1.2377,-1.2396,-1.2411,-1.2413,-1.2427,-1.2423,-1.245,-1.2429,-1.2466,-1.2445,-1.2457,-1.2462,-1.2463,-1.2467,-1.2444,-1.2483,-1.2546,-1.2553,-1.2469,-1.2468,-1.2467,0,-1.2287,-1.2323,-1.2355,-1.2364,-1.2382,-1.2397,-1.2405,-1.2418,-1.2432,-1.2449,-1.2457,-1.2477,-1.2489,-1.2504,-1.2505,-1.249,-1.2543,-1.2522,-1.2546,-1.2546,-1.2559,-1.2558,-1.2625,-1.2564,-1.2564,-1.2564,-1.2564,0,-1.2341,-1.2371,-1.2374,-1.2394,-1.2426,-1.2425,-1.2457,-1.2463,-1.2475,-1.2496,-1.2488,-1.2508,-1.2508,-1.2528,-1.2529,-1.256,-1.2564,-1.2567,-1.2567,-1.2569,-1.2568,-1.2577,-1.2575,-1.2566,-1.2565,-1.2565,-1.2565,0,-1.2393,-1.2396,-1.2431,-1.2444,-1.2448,-1.2471,-1.2482,-1.2501,-1.2505,-1.2531,-1.2537,-1.2543,-1.2566,-1.2568,-1.2595,-1.2595,-1.2633,-1.2629,-1.2628,-1.2628,-1.2652,-1.265,-1.2728,-1.2738,-1.2669,-1.267,-1.267,0,-1.2428,-1.245,-1.2466,-1.2479,-1.2488,-1.251,-1.2523,-1.2522,-1.2537,-1.2554,-1.2571,-1.2593,-1.2611,-1.2648,-1.2654,-1.2674,-1.2671,-1.2697,-1.2674,-1.2675,-1.2673,-1.2672,-1.2674,-1.2702,-1.2703,-1.2704,-1.2704,0,-1.2491,-1.2491,-1.2511,-1.2531,-1.2547,-1.2563,-1.2577,-1.2589,-1.2589,-1.2606,-1.2629,-1.2643,-1.2669,-1.2691,-1.2711,-1.2718,-1.2712,-1.2711,-1.2717,-1.272,-1.2719,-1.2721,-1.2642,-1.2709,-1.2709,-1.2709,-1.2708,-1.2708,-1.2536,-1.2555,-1.2569,-1.2591,-1.2602,-1.2615,-1.2634,-1.2639,-1.2659,-1.2681,-1.2678,-1.2704,-1.2717,-1.2743,-1.2751,-1.2771,-1.2763,-1.2772,-1.2775,-1.2778,-1.278,-1.2714,-1.2774,-1.2774,-1.2774,-1.2774,-1.2774,0,-1.2599,-1.2607,-1.2627,-1.2648,-1.2665,-1.2656,-1.2672,-1.2686,-1.2709,-1.2722,-1.2739,-1.2766,-1.2787,-1.2794,-1.2814,-1.2828,-1.2826,-1.2834,-1.2834,-1.2836,-1.2787,-1.2779,-1.2836,-1.2836,-1.2836,-1.2836,-1.2836,-1.2836,-1.2634,-1.2666,-1.2668,-1.2705,-1.2712,-1.2738,-1.2747,-1.276,-1.277,-1.28,-1.2817,-1.2821,-1.2832,-1.2852,-1.2871,-1.2872,-1.2881,-1.289,-1.2891,-1.2845,-1.2839,-1.2833,-1.2826,-1.2892,-1.2892,-1.2938,-1.2938,-1.2939]}]]